Time,TemperatureF,DewpointF,PressureIn,WindDirection,WindDirectionDegrees,WindSpeedMPH,WindSpeedGustMPH,Humidity,HourlyPrecipIn,Conditions,Clouds,dailyrainin,SoftwareType,DateUTC
2013-04-23 00:10:00,47.3,40.0,30.41,ENE,60,2.0,-999.0,75,-99.99,,,0.00,weatherlink.com 1.10,2013-04-23 04:10:00,
2013-04-23 00:25:00,47.1,40.0,30.40,NNE,13,0.0,-999.0,75,-99.99,,,0.00,weatherlink.com 1.10,2013-04-23 04:25:00,
2013-04-23 00:40:00,47.1,40.0,30.40,NE,56,0.0,-999.0,76,-99.99,,,0.00,weatherlink.com 1.10,2013-04-23 04:40:00,
2013-04-23 00:55:00,47.0,40.0,30.39,ESE,112,2.0,-999.0,77,-99.99,,,0.00,weatherlink.com 1.10,2013-04-23 04:55:00,
2013-04-23 01:10:00,47.0,40.0,30.38,North,11,0.0,-999.0,78,-99.99,,,0.00,weatherlink.com 1.10,2013-04-23 05:10:00,
2013-04-23 01:25:00,46.8,41.0,30.38,NE,53,0.0,-999.0,79,-99.99,,,0.00,weatherlink.com 1.10,2013-04-23 05:25:00,
2013-04-23 01:40:00,46.7,41.0,30.37,ENE,59,0.0,-999.0,79,-99.99,,,0.00,weatherlink.com 1.10,2013-04-23 05:40:00,
2013-04-23 01:55:00,46.5,40.0,30.37,NE,42,0.0,-999.0,79,-99.99,,,0.00,weatherlink.com 1.10,2013-04-23 05:55:00,
2013-04-23 02:10:00,46.4,41.0,30.36,NE,34,0.0,-999.0,80,-99.99,,,0.00,weatherlink.com 1.10,2013-04-23 06:10:00,
2013-04-23 02:25:00,46.4,41.0,30.36,ENE,63,0.0,-999.0,81,-99.99,,,0.00,weatherlink.com 1.10,2013-04-23 06:25:00,
2013-04-23 02:40:00,46.4,41.0,30.35,NNE,16,2.0,-999.0,82,-99.99,,,0.00,weatherlink.com 1.10,2013-04-23 06:40:00,
2013-04-23 02:55:00,46.4,42.0,30.34,NE,53,3.0,-999.0,83,-99.99,,,0.00,weatherlink.com 1.10,2013-04-23 06:55:00,
2013-04-23 03:10:00,46.2,42.0,30.34,NE,53,0.0,-999.0,84,-99.99,,,0.00,weatherlink.com 1.10,2013-04-23 07:10:00,
2013-04-23 03:25:00,46.2,42.0,30.34,North,8,5.0,-999.0,84,-99.99,,,0.00,weatherlink.com 1.10,2013-04-23 07:25:00,
2013-04-23 03:40:00,46.2,42.0,30.33,ENE,70,0.0,-999.0,85,-99.99,,,0.00,weatherlink.com 1.10,2013-04-23 07:40:00,
2013-04-23 03:55:00,46.2,42.0,30.33,ENE,70,4.0,-999.0,85,-99.99,,,0.00,weatherlink.com 1.10,2013-04-23 07:55:00,
2013-04-23 04:10:00,46.2,42.0,30.32,ENE,60,5.0,-999.0,86,-99.99,,,0.00,weatherlink.com 1.10,2013-04-23 08:10:00,
2013-04-23 04:25:00,46.2,42.0,30.32,East,79,5.0,-999.0,86,-99.99,,,0.00,weatherlink.com 1.10,2013-04-23 08:25:00,
2013-04-23 04:40:00,46.2,43.0,30.32,NE,34,3.0,-999.0,87,-99.99,,,0.00,weatherlink.com 1.10,2013-04-23 08:40:00,
2013-04-23 04:55:00,46.2,43.0,30.32,North,352,0.0,-999.0,87,-99.99,,,0.00,weatherlink.com 1.10,2013-04-23 08:55:00,
2013-04-23 05:10:00,46.1,43.0,30.31,ENE,61,1.0,-999.0,87,-99.99,,,0.00,weatherlink.com 1.10,2013-04-23 09:10:00,
2013-04-23 05:25:00,46.0,43.0,30.31,NNE,12,4.0,-999.0,88,-99.99,,,0.00,weatherlink.com 1.10,2013-04-23 09:25:00,
2013-04-23 05:40:00,46.0,43.0,30.31,NNE,29,3.0,-999.0,88,-99.99,,,0.00,weatherlink.com 1.10,2013-04-23 09:40:00,
2013-04-23 05:55:00,45.8,42.0,30.31,NE,37,0.0,-999.0,87,-99.99,,,0.00,weatherlink.com 1.10,2013-04-23 09:55:00,
2013-04-23 06:10:00,45.7,42.0,30.31,ENE,63,2.0,-999.0,87,-99.99,,,0.00,weatherlink.com 1.10,2013-04-23 10:10:00,
2013-04-23 06:25:00,45.7,42.0,30.31,North,7,0.0,-999.0,87,-99.99,,,0.00,weatherlink.com 1.10,2013-04-23 10:25:00,
2013-04-23 06:40:00,45.8,42.0,30.31,North,0,1.0,-999.0,86,-99.99,,,0.00,weatherlink.com 1.10,2013-04-23 10:40:00,
2013-04-23 06:55:00,45.5,41.0,30.31,East,85,5.0,-999.0,85,-99.99,,,0.00,weatherlink.com 1.10,2013-04-23 10:55:00,
2013-04-23 07:10:00,45.7,42.0,30.31,NNE,20,2.0,-999.0,85,-99.99,,,0.00,weatherlink.com 1.10,2013-04-23 11:10:00,
2013-04-23 07:25:00,45.7,41.0,30.32,NNE,28,2.0,-999.0,84,-99.99,,,0.00,weatherlink.com 1.10,2013-04-23 11:25:00,
2013-04-23 07:40:00,45.7,41.0,30.31,NNE,15,3.0,-999.0,84,-99.99,,,0.00,weatherlink.com 1.10,2013-04-23 11:40:00,
2013-04-23 07:55:00,45.5,41.0,30.31,ENE,70,10.0,-999.0,83,-99.99,,,0.00,weatherlink.com 1.10,2013-04-23 11:55:00,
2013-04-23 08:10:00,45.8,41.0,30.31,NNE,27,5.0,-999.0,83,-99.99,,,0.00,weatherlink.com 1.10,2013-04-23 12:10:00,
2013-04-23 08:25:00,46.0,41.0,30.31,NE,41,3.0,-999.0,82,-99.99,,,0.00,weatherlink.com 1.10,2013-04-23 12:25:00,
2013-04-23 08:40:00,45.8,40.0,30.31,NE,39,2.0,-999.0,80,-99.99,,,0.00,weatherlink.com 1.10,2013-04-23 12:40:00,
2013-04-23 08:55:00,46.0,40.0,30.31,NNE,20,3.0,-999.0,79,-99.99,,,0.00,weatherlink.com 1.10,2013-04-23 12:55:00,
2013-04-23 09:10:00,46.4,40.0,30.30,ENE,77,4.0,-999.0,78,-99.99,,,0.00,weatherlink.com 1.10,2013-04-23 13:10:00,
2013-04-23 09:25:00,47.0,40.0,30.30,North,0,2.0,-999.0,78,-99.99,,,0.00,weatherlink.com 1.10,2013-04-23 13:25:00,
2013-04-23 09:40:00,47.6,41.0,30.30,NW,324,2.0,-999.0,77,-99.99,,,0.00,weatherlink.com 1.10,2013-04-23 13:40:00,
2013-04-23 09:55:00,47.4,40.0,30.30,North,1,4.0,-999.0,75,-99.99,,,0.00,weatherlink.com 1.10,2013-04-23 13:55:00,
2013-04-23 10:10:00,47.7,40.0,30.30,NE,38,6.0,-999.0,75,-99.99,,,0.00,weatherlink.com 1.10,2013-04-23 14:10:00,
2013-04-23 10:25:00,47.9,40.0,30.30,NE,56,0.0,-999.0,74,-99.99,,,0.00,weatherlink.com 1.10,2013-04-23 14:25:00,
2013-04-23 10:40:00,48.5,40.0,30.30,ENE,71,5.0,-999.0,73,-99.99,,,0.00,weatherlink.com 1.10,2013-04-23 14:40:00,
2013-04-23 10:55:00,48.6,41.0,30.29,NW,304,3.0,-999.0,74,-99.99,,,0.00,weatherlink.com 1.10,2013-04-23 14:55:00,
2013-04-23 11:10:00,49.2,41.0,30.28,NE,37,0.0,-999.0,74,-99.99,,,0.00,weatherlink.com 1.10,2013-04-23 15:10:00,
2013-04-23 11:25:00,50.5,43.0,30.28,ENE,57,2.0,-999.0,75,-99.99,,,0.00,weatherlink.com 1.10,2013-04-23 15:25:00,
2013-04-23 11:40:00,51.0,43.0,30.27,NE,40,0.0,-999.0,74,-99.99,,,0.00,weatherlink.com 1.10,2013-04-23 15:40:00,
2013-04-23 11:55:00,50.8,42.0,30.27,NNW,333,1.0,-999.0,72,-99.99,,,0.00,weatherlink.com 1.10,2013-04-23 15:55:00,
2013-04-23 12:10:00,52.9,44.0,30.26,ENE,58,2.0,-999.0,73,-99.99,,,0.00,weatherlink.com 1.10,2013-04-23 16:10:00,
2013-04-23 12:25:00,52.6,43.0,30.25,NE,39,2.0,-999.0,70,-99.99,,,0.00,weatherlink.com 1.10,2013-04-23 16:25:00,
2013-04-23 12:40:00,53.8,44.0,30.25,North,359,1.0,-999.0,70,-99.99,,,0.00,weatherlink.com 1.10,2013-04-23 16:40:00,
2013-04-23 12:55:00,53.8,43.0,30.24,ENE,68,5.0,-999.0,68,-99.99,,,0.00,weatherlink.com 1.10,2013-04-23 16:55:00,
2013-04-23 13:10:00,54.1,43.0,30.24,NNW,331,4.0,-999.0,67,-99.99,,,0.00,weatherlink.com 1.10,2013-04-23 17:10:00,
2013-04-23 13:25:00,55.6,43.0,30.23,ENE,61,3.0,-999.0,64,-99.99,,,0.00,weatherlink.com 1.10,2013-04-23 17:25:00,
2013-04-23 13:40:00,56.7,43.0,30.23,NW,320,5.0,-999.0,60,-99.99,,,0.00,weatherlink.com 1.10,2013-04-23 17:40:00,
2013-04-23 13:55:00,56.0,43.0,30.23,NNW,338,0.0,-999.0,62,-99.99,,,0.00,weatherlink.com 1.10,2013-04-23 17:55:00,
2013-04-23 14:10:00,56.0,43.0,30.23,SE,132,0.0,-999.0,61,-99.99,,,0.00,weatherlink.com 1.10,2013-04-23 18:10:00,
2013-04-23 14:25:00,56.5,43.0,30.23,ENE,69,6.0,-999.0,61,-99.99,,,0.00,weatherlink.com 1.10,2013-04-23 18:25:00,
2013-04-23 14:40:00,56.3,43.0,30.22,North,359,0.0,-999.0,62,-99.99,,,0.00,weatherlink.com 1.10,2013-04-23 18:40:00,
2013-04-23 14:55:00,57.5,45.0,30.22,NNE,20,2.0,-999.0,64,-99.99,,,0.00,weatherlink.com 1.10,2013-04-23 18:55:00,
2013-04-23 15:10:00,57.2,43.0,30.22,North,0,0.0,-999.0,60,-99.99,,,0.00,weatherlink.com 1.10,2013-04-23 19:10:00,
2013-04-23 15:25:00,58.0,44.0,30.21,West,281,0.0,-999.0,59,-99.99,,,0.00,weatherlink.com 1.10,2013-04-23 19:25:00,
2013-04-23 15:40:00,58.6,43.0,30.19,West,261,3.0,-999.0,56,-99.99,,,0.00,weatherlink.com 1.10,2013-04-23 19:40:00,
2013-04-23 15:55:00,59.3,44.0,30.18,North,351,0.0,-999.0,57,-99.99,,,0.00,weatherlink.com 1.10,2013-04-23 19:55:00,
2013-04-23 16:10:00,59.8,45.0,30.17,NE,51,3.0,-999.0,59,-99.99,,,0.00,weatherlink.com 1.10,2013-04-23 20:10:00,
2013-04-23 16:25:00,59.9,45.0,30.17,SE,141,0.0,-999.0,59,-99.99,,,0.00,weatherlink.com 1.10,2013-04-23 20:25:00,
2013-04-23 16:40:00,59.3,45.0,30.16,ESE,120,0.0,-999.0,60,-99.99,,,0.00,weatherlink.com 1.10,2013-04-23 20:40:00,
2013-04-23 16:55:00,59.6,45.0,30.16,NNE,26,1.0,-999.0,60,-99.99,,,0.00,weatherlink.com 1.10,2013-04-23 20:55:00,
2013-04-23 17:10:00,59.0,45.0,30.16,NE,46,3.0,-999.0,60,-99.99,,,0.00,weatherlink.com 1.10,2013-04-23 21:10:00,
2013-04-23 17:25:00,59.2,46.0,30.15,SSE,147,0.0,-999.0,61,-99.99,,,0.00,weatherlink.com 1.10,2013-04-23 21:25:00,
2013-04-23 17:40:00,59.0,45.0,30.14,SSE,150,0.0,-999.0,60,-99.99,,,0.00,weatherlink.com 1.10,2013-04-23 21:40:00,
2013-04-23 17:55:00,58.3,43.0,30.14,SE,140,0.0,-999.0,57,-99.99,,,0.00,weatherlink.com 1.10,2013-04-23 21:55:00,
2013-04-23 18:10:00,58.6,44.0,30.14,SE,127,0.0,-999.0,58,-99.99,,,0.00,weatherlink.com 1.10,2013-04-23 22:10:00,
2013-04-23 18:25:00,58.0,44.0,30.14,NE,51,0.0,-999.0,61,-99.99,,,0.00,weatherlink.com 1.10,2013-04-23 22:25:00,
2013-04-23 18:40:00,57.2,43.0,30.14,NNE,15,0.0,-999.0,60,-99.99,,,0.00,weatherlink.com 1.10,2013-04-23 22:40:00,
2013-04-23 18:55:00,56.5,44.0,30.14,NE,38,0.0,-999.0,63,-99.99,,,0.00,weatherlink.com 1.10,2013-04-23 22:55:00,
2013-04-23 19:10:00,56.0,44.0,30.14,NE,39,0.0,-999.0,65,-99.99,,,0.00,weatherlink.com 1.10,2013-04-23 23:10:00,
2013-04-23 19:25:00,55.3,44.0,30.14,NE,39,0.0,-999.0,67,-99.99,,,0.00,weatherlink.com 1.10,2013-04-23 23:25:00,
2013-04-23 19:40:00,54.1,45.0,30.14,NE,39,0.0,-999.0,70,-99.99,,,0.00,weatherlink.com 1.10,2013-04-23 23:40:00,
2013-04-23 19:55:00,52.5,44.0,30.14,NE,39,0.0,-999.0,74,-99.99,,,0.00,weatherlink.com 1.10,2013-04-23 23:55:00,
2013-04-23 20:10:00,51.6,45.0,30.14,NE,39,0.0,-999.0,77,-99.99,,,0.00,weatherlink.com 1.10,2013-04-24 00:10:00,
2013-04-23 20:25:00,50.4,44.0,30.14,NE,39,0.0,-999.0,79,-99.99,,,0.00,weatherlink.com 1.10,2013-04-24 00:25:00,
2013-04-23 20:40:00,49.6,44.0,30.14,NE,39,0.0,-999.0,80,-99.99,,,0.00,weatherlink.com 1.10,2013-04-24 00:40:00,
2013-04-23 20:55:00,48.6,44.0,30.14,NE,39,0.0,-999.0,84,-99.99,,,0.00,weatherlink.com 1.10,2013-04-24 00:55:00,
2013-04-23 21:10:00,48.3,44.0,30.14,NE,39,0.0,-999.0,84,-99.99,,,0.00,weatherlink.com 1.10,2013-04-24 01:10:00,
2013-04-23 21:25:00,47.4,43.0,30.16,NE,39,0.0,-999.0,86,-99.99,,,0.00,weatherlink.com 1.10,2013-04-24 01:25:00,
2013-04-23 21:40:00,46.8,44.0,30.16,NE,39,0.0,-999.0,88,-99.99,,,0.00,weatherlink.com 1.10,2013-04-24 01:40:00,
2013-04-23 21:55:00,46.2,43.0,30.16,NE,39,0.0,-999.0,88,-99.99,,,0.00,weatherlink.com 1.10,2013-04-24 01:55:00,
2013-04-23 22:10:00,45.4,43.0,30.16,NE,39,0.0,-999.0,90,-99.99,,,0.00,weatherlink.com 1.10,2013-04-24 02:10:00,
2013-04-23 22:25:00,45.1,43.0,30.15,NE,39,0.0,-999.0,91,-99.99,,,0.00,weatherlink.com 1.10,2013-04-24 02:25:00,
2013-04-23 22:55:00,44.3,42.0,30.14,NE,39,0.0,-999.0,93,-99.99,,,0.00,weatherlink.com 1.10,2013-04-24 02:55:00,
2013-04-23 23:10:00,44.1,42.0,30.14,NE,39,0.0,-999.0,93,-99.99,,,0.00,weatherlink.com 1.10,2013-04-24 03:10:00,
2013-04-23 23:25:00,43.9,42.0,30.14,NE,39,0.0,-999.0,94,-99.99,,,0.00,weatherlink.com 1.10,2013-04-24 03:25:00,
2013-04-23 23:40:00,43.6,42.0,30.14,NE,39,0.0,-999.0,94,-99.99,,,0.00,weatherlink.com 1.10,2013-04-24 03:40:00,
2013-04-23 23:55:00,43.3,42.0,30.13,NE,39,0.0,-999.0,95,-99.99,,,0.00,weatherlink.com 1.10,2013-04-24 03:55:00,